Location: Asheville, NC
(35.6000°N, 82.5500°W)
Time: 17:15:48
(UTC-05:00)

OTV 5 (USA 277) - Pass Details

Date: 08 December 2017
Orbit: 404 x 417 km, 43.0° (Epoch: 07 September)

Event Time Altitude Azimuth Distance (km) Brightness Sun altitude
Rises 19:11:59 0° 296° (WNW) 2,351 ? -22.7°
Reaches altitude 10° 19:14:23 10° 311° (NW) 1,488 ? -23.2°
Enters shadow 19:15:37 17° 328° (NNW) 1,125 ? -23.5°
